COSMOS 2193

Satellite information

Favourite Embed

Satellite Type and Status

PAYLOADIN ORBIT

Key statistics

Satellite COSMOS 2193 at a glance.

Uptime

12204

Days in orbit

Revolutions

≈ 12.5

Per day

Orbit

LEO

Low Earth Orbit

Inclination

74.0

Latest

Satellite identification and parameters

Extended collection of information and parameters for COSMOS 2193.

Object identification

Identified? True

Debris? False

Object name: COSMOS 2193

International designator: 1992-030G

Object number (NORAD): 21982

Object ID (CCSDS): 21982

Country: COMMONWEALTH OF INDEPENDENT STATES (CIS)

Current information (Y/N): Y

RCS size: MEDIUM

Orbital parameters

Period: 115.158 minutes

Inclination: 74.0038 deg

SMA: 7840.742 km

Apoapsis: 1479.312 km

Periapsis: 1445.902 km

RAAN: 217.8363 deg

Eccentricy: 0.0021305

Argument of periapsis: 157.9815 deg

Mean anomaly: 261.59 deg

Mean motion: 12.50451937 rev/day

Mean motion (dot): -0.00000025 rev/day2

B* drag term: -0.000061453 1/REarth

Two-line elements (TLE)

Creation date: Oct. 31, 2025, 11:06 p.m.

Reference frame: TEME

Reference center: EARTH

Epoch: Oct. 31, 2025, 7:33 p.m. UTC

TLE line 0: 0 COSMOS 2193

TLE line 1: 1 21982U 92030G 25304.81503596 -.00000025 00000-0 -61453-4 0 9999

TLE line 2: 2 21982 74.0038 217.8363 0021305 157.9815 261.5900 12.50451937525207

Live tracking on map

Real-time ground track for satellite COSMOS 2193.

In-orbit conjunctions

A list of the most updated potential collisions computed for object COSMOS 2193.

Target Orbit TCA Probability of collision Miss distance Type
SL-14 DEB LEO 2025-03-11 19:51:07 0.0001010224 408.0 (m) DEBRIS

Associated space launch

Military communications satellites

COSMOS 2193 was lifted into orbit during the mission ‘Kosmos-3M | Strela-1M 361-368’, on board a Kosmos-3M space rocket.

The launch took place on June 3, 1992, 12:50 a.m. from 133/3 (133L).

For more information about the launch, click the button.

Launch to space Kosmos-3M | Strela-1M 361-368
Kosmos-3M | Strela-1M 361-368

Agency: N/A

Status: Launch Successful

Launch date: June 3, 1992, 12:50 a.m. UTC

Rocket: Kosmos-3M

Launch pad: 133/3 (133L)

Location: Plesetsk Cosmodrome, Russian Federation

...

Latest news about this satellite

There are no fresh news available about this satellite. Check back as we update our databases every day.


Newsletter sign-up

Weekly statistics, charts and insights to help you stay on top of the space industry.